• In Uzbekistan
  • List of Countries
  • For 7 days
  • Water Temperature
  • Satellite Maps
  • Weather Map
  • Weather Widgets
  • user-avatar
    Login

    Hourly Weather Duz

    Today, 12 December, Wednesday

    Time Temperature Precipitation Wind Pressure Humidity
    00:00 +14°C° 0 mm 3 mps 761 mmHg 47%
    01:00 +13°C° 0 mm 3 mps 761 mmHg 48%
    02:00 +13°C° 0 mm 3 mps 761 mmHg 48%
    03:00 +13°C° 0 mm 3 mps 760 mmHg 49%
    04:00 +12°C° 0 mm 3 mps 760 mmHg 50%
    05:00 +12°C° 0 mm 3 mps 760 mmHg 50%
    06:00 +12°C° 0 mm 3 mps 760 mmHg 51%
    07:00 +11°C° 0 mm 3 mps 760 mmHg 51%
    08:00 +12°C° 0 mm 3 mps 761 mmHg 48%
    09:00 +13°C° 0 mm 3 mps 761 mmHg 45%
    10:00 +14°C° 0 mm 3 mps 761 mmHg 41%
    11:00 +17°C° 0 mm 3 mps 761 mmHg 38%
    12:00 +18°C° 0 mm 3 mps 761 mmHg 35%
    13:00 +19°C° 0 mm 3 mps 760 mmHg 32%
    14:00 +19°C° 0 mm 3 mps 760 mmHg 31%
    15:00 +19°C° 0 mm 3 mps 760 mmHg 31%
    16:00 +19°C° 0 mm 3 mps 759 mmHg 30%
    17:00 +18°C° 0 mm 3 mps 759 mmHg 33%
    18:00 +17°C° 0 mm 2 mps 759 mmHg 35%
    19:00 +16°C° 0 mm 2 mps 759 mmHg 38%
    20:00 +16°C° 0 mm 2 mps 759 mmHg 38%
    21:00 +16°C° 0 mm 2 mps 759 mmHg 39%
    22:00 +15°C° 0 mm 2 mps 759 mmHg 39%
    23:00 +15°C° 0 mm 2 mps 759 mmHg 40%

    Tomorrow, 13 December, Thursday

    Time Temperature Precipitation Wind Pressure Humidity
    00:00 +15°C° 0 mm 2 mps 759 mmHg 41%
    01:00 +14°C° 0 mm 2 mps 759 mmHg 42%
    02:00 +13°C° 0 mm 3 mps 759 mmHg 42%
    03:00 +12°C° 0 mm 3 mps 759 mmHg 43%
    04:00 +12°C° 0 mm 3 mps 759 mmHg 43%
    05:00 +12°C° 0 mm 3 mps 758 mmHg 44%
    06:00 +12°C° 0 mm 3 mps 758 mmHg 44%
    07:00 +11°C° 0 mm 3 mps 758 mmHg 44%
    08:00 +12°C° 0 mm 3 mps 758 mmHg 41%
    09:00 +13°C° 0 mm 3 mps 758 mmHg 38%
    10:00 +14°C° 0 mm 3 mps 759 mmHg 35%
    11:00 +17°C° 0 mm 4 mps 758 mmHg 32%
    12:00 +18°C° 0 mm 4 mps 757 mmHg 29%
    13:00 +19°C° 0 mm 5 mps 757 mmHg 27%
    14:00 +19°C° 0 mm 5 mps 756 mmHg 26%
    15:00 +19°C° 0 mm 5 mps 756 mmHg 26%
    16:00 +19°C° 0 mm 5 mps 756 mmHg 26%
    17:00 +18°C° 0 mm 4 mps 755 mmHg 27%
    18:00 +17°C° 0 mm 4 mps 755 mmHg 29%
    19:00 +15°C° 0 mm 4 mps 755 mmHg 31%
    20:00 +15°C° 0 mm 4 mps 755 mmHg 31%
    21:00 +15°C° 0 mm 4 mps 755 mmHg 32%
    22:00 +14°C° 0 mm 5 mps 755 mmHg 32%
    23:00 +14°C° 0 mm 5 mps 754 mmHg 32%

    Day after tomorrow, 14 December, Friday

    Time Temperature Precipitation Wind Pressure Humidity
    00:00 +14°C° 0 mm 5 mps 754 mmHg 32%
    01:00 +14°C° 0 mm 6 mps 753 mmHg 32%
    02:00 +14°C° 0 mm 6 mps 753 mmHg 31%
    03:00 +15°C° 0 mm 7 mps 752 mmHg 31%
    04:00 +15°C° 0 mm 7 mps 752 mmHg 30%
    05:00 +14°C° 0 mm 7 mps 752 mmHg 38%
    06:00 +14°C° 0 mm 7 mps 752 mmHg 45%
    07:00 +12°C° 0 mm 7 mps 752 mmHg 53%
    08:00 +12°C° 0 mm 8 mps 752 mmHg 47%
    09:00 +13°C° 0 mm 9 mps 752 mmHg 42%
    10:00 +13°C° 0 mm 11 mps 752 mmHg 37%
    11:00 +14°C° 0 mm 12 mps 752 mmHg 36%
    12:00 +14°C° 0 mm 13 mps 752 mmHg 35%
    13:00 +15°C° 0 mm 14 mps 751 mmHg 35%
    14:00 +15°C° 0 mm 13 mps 751 mmHg 35%
    15:00 +15°C° 0 mm 12 mps 751 mmHg 35%
    16:00 +17°C° 0 mm 11 mps 750 mmHg 36%
    17:00 +16°C° 0 mm 10 mps 751 mmHg 38%
    18:00 +16°C° 0 mm 8 mps 751 mmHg 40%
    19:00 +16°C° 0 mm 7 mps 752 mmHg 42%
    20:00 +15°C° 0 mm 8 mps 752 mmHg 44%
    21:00 +15°C° 0 mm 9 mps 752 mmHg 46%
    22:00 +14°C° 0 mm 10 mps 752 mmHg 48%
    23:00 +15°C° 0 mm 9 mps 753 mmHg 50%

    15 December, Saturday

    Time Temperature Precipitation Wind Pressure Humidity
    00:00 +15°C° 0 mm 9 mps 753 mmHg 52%
    01:00 +15°C° 0 mm 9 mps 754 mmHg 53%
    02:00 +15°C° 0 mm 9 mps 754 mmHg 53%
    03:00 +13°C° 0 mm 9 mps 755 mmHg 53%
    04:00 +13°C° 0 mm 9 mps 755 mmHg 53%
    05:00 +13°C° 0 mm 9 mps 756 mmHg 52%
    06:00 +13°C° 0 mm 9 mps 757 mmHg 52%
    07:00 +12°C° 0 mm 9 mps 757 mmHg 51%
    08:00 +13°C° 0 mm 9 mps 758 mmHg 48%
    09:00 +13°C° 0 mm 8 mps 759 mmHg 46%
    10:00 +15°C° 0 mm 8 mps 760 mmHg 43%
    11:00 +16°C° 0 mm 8 mps 760 mmHg 39%
    12:00 +17°C° 0 mm 8 mps 760 mmHg 36%
    13:00 +18°C° 0 mm 8 mps 760 mmHg 32%
    14:00 +18°C° 0 mm 8 mps 760 mmHg 33%
    15:00 +18°C° 0 mm 8 mps 760 mmHg 34%
    16:00 +18°C° 0 mm 7 mps 760 mmHg 35%
    17:00 +17°C° 0 mm 6 mps 761 mmHg 38%
    18:00 +16°C° 0 mm 5 mps 761 mmHg 41%
    19:00 +15°C° 0 mm 4 mps 762 mmHg 44%
    20:00 +15°C° 0 mm 4 mps 762 mmHg 46%
    21:00 +14°C° 0 mm 3 mps 763 mmHg 48%
    22:00 +14°C° 0 mm 3 mps 763 mmHg 50%
    23:00 +13°C° 0 mm 3 mps 763 mmHg 52%

    16 December, Sunday

    Time Temperature Precipitation Wind Pressure Humidity
    00:00 +13°C° 0 mm 3 mps 763 mmHg 53%
    01:00 +13°C° 0 mm 4 mps 763 mmHg 55%
    02:00 +12°C° 0 mm 4 mps 763 mmHg 57%
    03:00 +12°C° 0 mm 4 mps 763 mmHg 58%
    04:00 +12°C° 0 mm 4 mps 763 mmHg 59%
    05:00 +11°C° 0 mm 3 mps 764 mmHg 60%
    06:00 +11°C° 0 mm 3 mps 764 mmHg 60%
    07:00 +11°C° 0 mm 3 mps 764 mmHg 61%
    08:00 +12°C° 0 mm 3 mps 764 mmHg 57%
    09:00 +13°C° 0 mm 3 mps 765 mmHg 53%
    10:00 +14°C° 0 mm 3 mps 765 mmHg 49%
    11:00 +15°C° 0 mm 4 mps 765 mmHg 46%
    12:00 +17°C° 0 mm 4 mps 765 mmHg 43%
    13:00 +17°C° 0 mm 5 mps 764 mmHg 40%
    14:00 +18°C° 0 mm 4 mps 764 mmHg 39%
    15:00 +18°C° 0 mm 4 mps 764 mmHg 39%
    16:00 +18°C° 0 mm 4 mps 764 mmHg 38%
    17:00 +17°C° 0 mm 3 mps 764 mmHg 41%
    18:00 +17°C° 0 mm 3 mps 764 mmHg 43%
    19:00 +16°C° 0 mm 3 mps 765 mmHg 46%
    20:00 +14°C° 0 mm 3 mps 765 mmHg 47%
    21:00 +14°C° 0 mm 3 mps 765 mmHg 48%
    22:00 +15°C° 0 mm 2 mps 765 mmHg 49%
    23:00 +14°C° 0 mm 2 mps 765 mmHg 50%

    17 December, Monday

    Time Temperature Precipitation Wind Pressure Humidity
    00:00 +14°C° 0 mm 2 mps 765 mmHg 50%
    01:00 +14°C° 0 mm 2 mps 765 mmHg 51%
    02:00 +14°C° 0 mm 2 mps 765 mmHg 51%
    03:00 +12°C° 0 mm 3 mps 765 mmHg 51%
    04:00 +12°C° 0 mm 3 mps 765 mmHg 51%
    05:00 +12°C° 0 mm 3 mps 765 mmHg 51%
    06:00 +12°C° 0 mm 3 mps 765 mmHg 51%
    07:00 +12°C° 0 mm 3 mps 765 mmHg 51%
    08:00 +13°C° 0 mm 3 mps 765 mmHg 47%
    09:00 +13°C° 0 mm 3 mps 765 mmHg 44%
    10:00 +14°C° 0 mm 3 mps 766 mmHg 40%
    11:00 +17°C° 0 mm 4 mps 765 mmHg 37%
    12:00 +18°C° 0 mm 4 mps 765 mmHg 33%
    13:00 +19°C° 0 mm 5 mps 765 mmHg 30%
    14:00 +19°C° 0 mm 5 mps 764 mmHg 30%
    15:00 +19°C° 0 mm 4 mps 764 mmHg 30%
    16:00 +19°C° 0 mm 4 mps 764 mmHg 29%
    17:00 +18°C° 0 mm 4 mps 764 mmHg 31%
    18:00 +17°C° 0 mm 4 mps 764 mmHg 33%
    19:00 +17°C° 0 mm 3 mps 764 mmHg 36%
    20:00 +16°C° 0 mm 3 mps 764 mmHg 36%
    21:00 +16°C° 0 mm 3 mps 765 mmHg 37%
    22:00 +16°C° 0 mm 3 mps 765 mmHg 38%
    23:00 +14°C° 0 mm 3 mps 765 mmHg 39%
    Show more